Theta_e
310 312 311 310 311 309 305 305 304 307 307 309 312 314 315 317 318 321 320 319 320 322 323 324 326 329 331 332 331 330 332 330 329 329 324 323 328 330 329 328 322 321 319 313
309 312 310 310 310 309 308 310 308 309 309 314 318 319 321 322 323 320 321 323 323 323 324 325 329 329 332 331 330 329 326 323 328 324 324 326 325 325 324 320 318 318 316 315
301 309 309 305 308 310 310 312 313 309 312 318 317 318 319 320 322 322 323 323 324 324 326 329 328 330 331 331 329 327 325 326 328 323 322 326 327 322 320 318 317 316 314 315
302 306 297 309 316 315 313 317 320 319 319 319 318 318 320 321 320 322 324 325 325 324 326 326 328 330 330 330 328 327 326 327 324 322 322 324 320 318 318 316 316 314 314 313
298 299 306 309 315 314 313 316 322 319 320 320 320 318 317 323 324 323 323 326 327 328 332 332 330 329 329 324 323 328 328 326 322 319 316 317 317 315 316 316 315 314 315 313
301 297 300 311 318 320 318 309 322 321 319 318 318 308 313 324 325 325 327 327 328 331 329 331 327 327 323 324 324 324 325 326 320 317 316 315 315 316 314 314 315 316 313 313
301 300 311 319 321 321 306 310 322 321 319 317 314 317 321 322 323 326 325 326 327 330 326 327 323 320 319 325 323 323 325 320 318 315 314 316 315 315 314 313 313 313 314 313
307 303 302 320 321 317 321 323 322 320 320 318 319 320 321 323 322 326 325 328 332 330 328 328 326 327 322 321 323 323 318 317 316 315 315 317 315 314 314 313 312 310 310 312
310 310 318 317 319 327 326 321 319 319 321 321 320 319 320 321 324 326 327 328 332 330 329 324 328 324 318 319 319 316 316 314 314 313 314 313 312 312 312 313 312 311 308 307
310 317 316 317 323 327 326 322 323 325 323 322 320 322 321 324 326 326 329 327 328 322 327 322 322 322 319 319 317 315 310 310 311 310 309 312 313 312 312 311 308 310 305 304
312 316 324 327 327 327 326 326 327 327 325 324 324 324 324 325 327 326 326 328 328 326 324 323 324 320 317 316 314 311 310 311 310 311 310 310 310 311 311 311 309 306 304 303
312 320 321 320 322 327 323 325 327 325 325 328 327 325 326 325 326 325 325 328 326 325 323 322 320 319 316 315 315 311 311 310 310 310 311 312 310 311 306 304 303 299 300 303
319 321 320 320 323 324 325 324 327 324 327 327 328 326 324 323 324 324 327 326 326 324 324 321 314 314 316 316 314 311 308 310 312 310 310 310 309 308 308 308 301 299 297 297
323 320 315 318 321 326 325 326 324 326 327 328 327 327 327 325 327 327 323 325 325 323 320 318 317 316 316 312 311 310 310 308 309 309 309 309 308 307 309 309 308 309 302 296
318 320 318 320 323 323 323 322 321 321 325 325 326 326 326 324 325 325 324 325 323 321 321 320 319 317 312 311 310 309 310 311 311 312 311 309 307 308 308 308 309 309 312 305
318 319 322 322 322 322 322 322 321 321 323 324 325 325 325 326 326 326 327 324 320 320 323 322 316 313 313 311 311 311 311 307 304 310 311 310 310 308 308 308 308 310 312 311
314 314 317 319 322 320 321 323 322 323 324 323 323 325 326 326 326 325 324 325 323 323 323 319 314 315 317 314 314 312 311 310 306 308 309 309 307 308 308 308 308 308 310 305
320 320 322 321 321 322 323 325 325 325 323 325 325 324 323 323 322 323 323 325 324 323 322 322 319 318 317 316 313 312 311 309 309 309 309 310 310 310 309 309 308 307 308 303
320 320 323 324 324 324 325 324 323 323 325 324 323 322 322 322 322 322 322 321 321 320 321 320 311 313 314 314 311 311 310 310 310 310 310 308 309 309 310 311 311 310 310 310
321 321 325 325 326 326 325 323 322 322 323 322 322 320 320 321 321 321 323 321 321 321 323 322 321 320 319 315 306 313 313 313 313 311 311 310 312 313 313 306 309 311 310 310
322 322 325 325 325 324 323 322 322 320 321 320 319 318 318 319 322 323 318 316 318 320 314 312 316 317 317 306 308 313 314 313 312 311 312 313 311 312 310 309 308 309 309 306
323 323 323 324 322 321 322 321 321 320 319 318 320 320 317 317 317 321 320 317 321 303 313 317 315 303 305 296 313 314 311 311 311 310 310 313 310 307 307 307 307 306 306 305
320 321 321 322 321 321 319 319 319 318 318 318 317 318 318 317 318 313 313 320 321 315 315 316 298 294 293 307 315 312 310 310 310 311 310 309 308 307 306 306 305 307 306 305
318 320 321 322 322 320 317 317 317 320 320 321 321 317 314 313 311 315 315 308 301 306 313 309 304 296 289 309 311 307 305 309 307 307 307 300 307 308 307 306 305 305 304 301
322 321 321 320 318 318 318 320 319 318 318 313 314 312 311 311 313 313 312 312 302 306 310 299 296 294 307 310 309 306 304 306 305 306 306 306 306 305 305 304 303 301 302 301
319 318 319 318 317 318 315 313 310 311 310 309 310 309 310 310 311 310 312 305 308 304 307 307 307 307 309 306 304 306 307 306 305 303 304 305 306 306 305 304 305 303 301 303
315 312 317 316 316 315 313 311 310 311 309 309 309 309 308 310 309 308 304 310 309 308 308 307 308 305 306 304 304 309 307 304 298 303 303 303 302 305 302 302 301 299 298 297
Wind_Speed
9 9 7 8 9 13 12 5 8 7 8 3 6 7 5 8 6 7 2 5 5 6 7 8 7 7 7 7 4 4 6 6 8 8 8 8 6 6 6 5 5 7 7 7
6 8 7 6 13 13 20 17 6 8 8 5 7 10 12 9 9 5 5 6 7 4 7 8 8 7 6 5 7 4 3 4 8 7 6 6 6 6 7 7 5 6 4 6
5 5 4 4 2 2 6 4 5 9 3 8 12 11 6 8 7 7 8 6 7 7 7 6 6 5 5 4 5 5 1 4 4 5 4 6 7 7 6 6 5 4 2 5
4 2 1 5 9 1 6 9 10 10 10 8 8 7 9 8 6 8 7 7 7 7 2 2 5 1 5 6 2 5 3 5 6 6 6 6 6 7 6 4 5 3 1 4
2 1 1 9 11 4 10 6 8 7 9 9 8 8 7 7 6 4 6 7 4 5 19 19 13 12 14 14 22 16 11 9 5 5 6 5 5 5 4 4 2 3 3 5
3 2 4 9 12 13 15 1 6 9 7 6 6 4 5 7 6 9 8 7 7 10 12 7 4 6 6 8 6 12 12 6 1 5 7 6 5 3 2 2 2 2 3 5
5 5 2 3 9 9 1 5 5 6 4 5 3 3 5 7 8 5 5 8 5 7 5 7 5 4 6 8 5 4 7 10 4 4 5 2 3 1 1 0 2 3 5 7
3 7 4 3 6 4 6 5 6 3 3 4 4 6 6 7 8 7 8 8 9 9 8 5 6 8 7 6 3 4 6 3 2 5 2 3 4 1 0 2 3 5 5 7
6 7 7 6 4 6 6 6 3 3 3 3 5 4 6 7 7 7 8 9 11 9 8 7 9 7 6 3 6 3 3 2 1 2 0 2 4 3 2 4 4 6 3 3
7 8 4 8 7 6 7 6 3 6 6 5 5 7 7 7 7 8 8 5 4 6 8 4 4 3 6 4 2 4 2 3 4 1 2 2 2 2 2 4 3 4 3 4
5 14 6 7 7 6 4 5 8 7 4 3 7 7 6 6 6 6 5 4 4 6 6 7 6 5 3 1 2 3 3 4 2 3 4 4 4 5 4 5 6 5 5 5
6 13 5 3 2 2 6 6 8 5 4 7 9 7 7 6 4 5 7 4 5 4 5 4 3 3 3 1 3 3 3 3 3 3 4 4 4 5 9 14 13 13 13 9
6 6 5 5 8 8 8 6 7 5 9 7 5 5 4 3 3 4 6 7 6 3 2 2 2 1 4 4 3 3 3 5 4 4 4 4 4 4 5 7 14 16 16 17
9 9 5 1 3 7 6 8 8 9 7 7 6 5 6 4 5 5 5 4 6 4 3 2 3 5 3 3 3 4 5 8 5 5 5 5 5 5 5 5 5 5 8 10
4 7 8 5 4 3 9 9 9 8 7 6 5 6 5 5 4 5 4 4 2 2 4 5 6 6 2 1 2 5 5 5 5 5 5 6 5 5 5 5 4 3 2 4
2 6 5 8 9 8 10 9 9 6 5 3 5 4 2 5 5 5 6 7 5 5 6 3 0 1 3 4 6 5 6 10 9 5 7 6 6 6 4 2 3 2 4 3
4 2 6 5 6 8 9 8 7 6 5 4 3 4 6 5 8 7 6 4 4 6 5 1 3 2 4 4 4 4 4 5 8 5 5 5 4 0 3 4 3 4 4 3
8 7 8 10 9 9 8 8 7 7 3 5 5 6 6 6 3 4 4 6 6 5 5 2 5 5 4 4 4 4 4 5 5 5 5 3 4 4 4 5 6 5 3 1
8 8 8 11 9 9 9 8 7 5 6 6 6 4 3 3 2 4 2 4 4 5 6 4 6 5 5 7 6 4 5 6 6 5 5 6 4 5 6 8 6 3 5 4
8 7 10 12 12 10 9 7 8 7 6 5 5 6 6 5 6 7 3 4 1 3 3 5 5 5 5 5 6 5 5 5 4 5 4 4 4 3 5 6 5 5 4 4
9 6 16 15 11 10 8 6 7 6 4 6 5 4 3 5 6 5 5 2 4 3 5 8 4 2 0 3 5 5 4 3 2 2 4 5 4 4 5 5 5 5 4 3
5 12 13 12 11 6 8 7 7 6 5 2 3 4 0 5 5 2 2 3 1 2 4 2 1 4 4 8 5 3 3 3 4 4 5 5 3 3 4 5 6 5 5 4
18 18 18 11 10 10 6 7 7 6 3 3 4 4 3 3 2 2 4 2 1 5 3 2 0 3 6 4 4 5 6 5 5 5 5 4 3 4 5 5 5 5 5 5
14 7 7 7 8 8 7 5 3 5 6 5 1 6 4 3 4 3 4 2 1 3 3 4 5 5 2 4 5 6 6 4 4 4 5 6 4 5 5 5 5 5 5 5
10 13 7 8 8 6 7 7 3 3 2 4 6 5 6 4 2 1 2 1 3 3 2 6 6 7 2 3 4 2 5 5 5 5 6 4 5 5 4 3 4 4 4 3
8 5 5 7 6 5 5 6 3 3 5 4 3 3 4 4 3 3 3 5 5 6 3 3 3 1 4 4 3 6 6 5 5 5 6 6 7 7 6 5 7 7 7 7
7 8 8 8 5 5 5 5 4 2 2 1 2 1 2 2 2 3 5 5 4 3 4 4 4 5 3 2 4 7 5 4 5 5 5 5 6 6 6 7 6 6 5 6
Wind_Direction
324 38 45 22 336 47 34 344 91 188 86 66 65 77 21 1 343 95 201 306 278 252 189 182 169 176 171 159 154 111 158 170 186 199 188 193 192 162 137 121 102 95 123 124
323 7 34 57 35 24 61 323 38 73 59 69 48 48 57 48 35 30 13 22 35 290 230 184 170 183 179 155 144 78 117 167 189 192 207 181 147 121 108 106 95 86 123 150
276 26 336 16 244 315 303 352 52 70 70 44 34 23 36 36 19 353 339 1 1 340 317 186 191 142 107 186 130 102 303 269 236 168 101 130 134 119 115 121 113 109 73 93
257 51 309 296 310 39 11 329 49 47 37 48 35 23 49 13 358 350 349 332 328 351 313 87 48 103 3 95 128 126 249 342 40 78 95 131 130 134 132 125 118 123 261 159
178 87 273 351 328 8 24 351 30 48 37 33 360 352 335 352 358 357 345 331 318 6 44 31 2 50 59 51 356 347 66 9 315 65 67 100 108 115 112 118 139 174 230 240
320 252 190 217 231 241 194 290 342 69 48 19 14 33 277 317 340 339 346 339 18 113 108 116 108 97 87 82 16 52 5 231 319 74 70 67 75 85 88 104 201 199 268 250
235 213 103 142 286 292 116 216 68 76 63 13 12 234 270 342 343 351 4 343 73 90 88 137 146 152 47 102 157 112 151 262 110 91 84 104 127 85 101 1 313 289 268 278
30 47 275 219 10 97 184 87 108 75 90 5 348 344 338 332 344 342 351 23 66 83 91 136 146 94 109 118 222 218 224 189 73 102 104 137 152 166 259 274 276 281 280 285
142 208 217 216 183 148 126 131 132 147 97 40 10 349 342 328 355 18 15 46 53 75 72 67 77 91 104 205 195 170 51 331 282 107 81 133 160 212 248 261 255 263 272 300
54 7 218 210 222 121 128 155 200 100 75 47 28 4 1 19 21 26 35 62 98 76 81 82 76 173 189 195 183 187 187 338 335 282 275 286 238 228 233 258 272 255 232 236
23 328 343 69 105 111 78 46 85 68 40 18 62 32 31 38 33 14 16 24 70 102 115 151 173 189 162 169 282 312 322 322 325 320 297 282 258 238 238 233 198 218 232 223
194 214 144 166 337 196 144 120 115 86 356 69 70 43 40 23 23 355 8 30 73 107 128 162 193 160 174 265 283 310 339 332 318 333 319 287 270 280 248 237 246 235 235 212
167 145 142 217 227 239 130 100 126 73 96 94 80 64 49 11 28 78 49 21 16 52 76 105 111 319 291 302 51 6 329 316 313 321 300 292 289 280 280 290 249 249 248 246
159 154 142 354 158 107 134 109 89 83 89 82 75 50 48 37 10 74 69 59 64 50 9 308 307 292 302 87 25 327 308 296 288 280 270 274 273 274 270 262 266 276 261 253
165 167 171 165 145 182 101 92 77 70 67 59 60 70 47 11 338 154 157 122 121 267 274 270 261 279 124 65 305 288 289 279 268 268 264 258 263 262 257 267 316 348 26 332
330 15 175 171 202 130 112 101 95 85 78 66 76 56 335 293 251 234 171 201 183 238 248 305 136 206 287 276 264 267 266 265 262 271 272 270 266 268 298 50 294 280 275 276
197 252 303 326 163 129 123 121 115 105 83 67 51 345 352 18 32 24 340 265 265 255 279 86 269 286 286 298 279 258 269 280 278 291 275 265 286 229 231 250 269 268 229 202
186 183 146 141 132 125 117 112 108 103 88 86 55 42 35 48 47 7 3 1 18 13 359 14 296 278 279 309 318 304 294 283 282 277 287 260 264 258 296 319 309 313 309 235
176 188 177 142 138 122 116 108 104 92 91 72 52 32 20 26 9 323 310 344 19 355 319 59 5 5 300 283 304 298 281 279 284 294 305 306 349 335 340 322 325 350 294 282
193 214 154 128 122 124 120 115 103 91 81 76 63 41 22 358 334 319 274 39 335 222 295 304 294 283 314 17 334 293 283 298 347 328 311 309 303 333 320 291 293 283 285 272
189 187 136 132 130 96 103 105 101 102 92 89 90 76 12 320 328 338 58 32 301 314 307 312 331 12 134 318 325 308 339 0 37 310 301 308 336 328 298 284 290 295 307 311
93 83 59 87 85 50 82 107 111 111 107 73 137 135 337 313 329 133 220 202 250 341 308 340 43 14 336 327 296 313 303 276 278 293 289 299 335 306 310 320 322 327 325 330
106 105 107 183 153 167 126 126 126 116 134 237 253 251 204 257 275 9 347 288 202 263 304 1 130 252 277 300 315 287 285 270 291 301 311 356 11 342 341 333 333 348 0 18
103 114 170 166 157 124 129 122 138 188 200 235 72 82 66 36 345 53 80 117 269 273 278 189 240 250 319 322 306 310 318 1 17 23 63 37 18 24 2 11 16 21 26 28
163 177 150 126 122 137 142 177 193 281 53 80 88 61 39 14 108 230 124 129 215 264 347 223 259 273 281 282 287 296 48 55 44 42 31 38 13 0 351 24 30 25 8 34
124 127 119 123 112 101 102 88 94 60 61 40 87 59 14 1 339 327 346 15 1 340 343 313 318 237 251 299 347 68 88 64 64 58 45 37 19 17 15 20 28 29 24 16
71 72 76 73 59 80 72 61 38 54 51 61 120 81 331 51 37 24 6 357 25 15 333 322 310 288 244 286 67 86 88 96 62 70 63 49 33 21 20 25 31 28 22 38